Hourly Data Report for January 23, 2005

TORONTO CITY
ONTARIO

43°40'00.000" N
79°24'00.000" W
112.50 m
6158355
71508
XTO

Download Data

Hourly Data (January 2005)
Hourly Data Report for January 23, 2005
TIME
LST
Temp Definition
°C
Dew Point Definition
°C
Rel Hum Definition
%
Precip. Amount Definition
mm

Wind Dir Definition
10's deg

Wind Spd Definition
km/h
Visibility Definition
km
Stn Press Definition
kPa
Hmdx Definition


Wind Chill Definition


Weather Definition


00:00 -16.3 -19.6 76   LegendMM LegendMM   100.36     LegendNANA
01:00 -16.0 -19.4 75   LegendMM LegendMM   100.40     LegendNANA
02:00 -16.2 -20.1 72   LegendMM LegendMM   100.47     LegendNANA
03:00 -16.7 -20.7 71   LegendMM LegendMM   100.62     LegendNANA
04:00 -17.9 -22.2 69   LegendMM LegendMM   100.70     LegendNANA
05:00 -18.6 -23.0 68   LegendMM LegendMM   100.79     LegendNANA
06:00 -19.2 -23.7 68   LegendMM LegendMM   100.90     LegendNANA
07:00 -19.8 -24.4 67   LegendMM LegendMM   101.03     LegendNANA
08:00 -20.2 -25.0 65   LegendMM LegendMM   101.13     LegendNANA
09:00 -20.0 -25.1 64   LegendMM LegendMM   101.29     LegendNANA
10:00 -18.5 -24.5 59   LegendMM LegendMM   101.35     LegendNANA
11:00 -17.0 -24.2 54   LegendMM LegendMM   101.40     LegendNANA
12:00 -16.4 -24.5 50   LegendMM LegendMM   101.33     LegendNANA
13:00 -14.3 -23.0 48   LegendMM LegendMM   101.26     LegendNANA
14:00 -13.9 -23.3 45   LegendMM LegendMM   101.23     LegendNANA
15:00 -13.5 -23.3 43   LegendMM LegendMM   101.23     LegendNANA
16:00 -12.8 -22.7 43   LegendMM LegendMM   101.24     LegendNANA
17:00 -13.0 -20.6 53   LegendMM LegendMM   101.27     LegendNANA
18:00 -13.2 -19.6 59   LegendMM LegendMM   101.28     LegendNANA
19:00 -13.1 -18.8 62   LegendMM LegendMM   101.31     LegendNANA
20:00 -13.5 -18.5 66   LegendMM LegendMM   101.31     LegendNANA
21:00 -13.7 -18.5 67   LegendMM LegendMM   101.24     LegendNANA
22:00 -14.3 -18.8 69   LegendMM LegendMM   101.22     LegendNANA
23:00 -14.9 -19.1 70   LegendMM LegendMM   101.14     LegendNANA

Notes on Data Quality.

Legend

  • E = Estimated
  • M = Missing
  • NA = Not Available*
  • [empty] = Indicates an unobserved value
Date modified: